GW4372 Weather Reports


Display with metric or nautical units.
time (UTC)temp
F
wind
direction
speed
MPH
gust
MPH
rain 1hr
in
rain 24hr
in
rain mn
in
humidity
%
barometer
mb
20260503025112 71 172 0.0 1.0 0.00 0.33 0.33 99 1010.8
20260503024608 71 167 0.0 3.0 0.07 0.33 0.33 99 1010.8
20260503024100 71 164 0.0 3.0 0.07 0.33 0.33 99 1011.2
20260503023557 71 171 1.0 1.0 0.00 0.32 0.32 99 1011.5
20260503023054 71 179 0.0 0.0 0.00 0.32 0.32 99 1011.7
20260503022550 70 166 0.0 2.0 0.05 0.32 0.32 99 1011.7
20260503022045 70 185 1.0 1.0 0.07 0.31 0.31 99 1012.0
20260503021542 70 183 0.0 1.0 0.19 0.31 0.31 99 1011.8
20260503021039 71 182 2.0 6.0 0.17 0.30 0.30 99 1011.6
20260503020536 71 180 1.0 3.0 0.05 0.28 0.28 99 1011.7
20260503020033 72 187 2.0 6.0 0.14 0.27 0.27 99 1011.5
20260503015529 72 193 2.0 2.0 0.14 0.27 0.27 99 1011.5
20260503015026 72 175 1.0 1.0 0.00 0.25 0.25 99 1011.4
20260503014517 72 180 0.0 0.0 0.00 0.25 0.25 99 1011.2
20260503014015 72 184 1.0 1.0 0.00 0.25 0.25 99 1011.1
20260503013512 72 180 1.0 1.0 0.00 0.25 0.25 99 1010.8
20260503013010 72 170 1.0 2.0 0.00 0.25 0.25 99 1011.2
20260503012507 72 170 1.0 2.0 0.00 0.25 0.25 99 1011.2
20260503012003 73 176 0.0 0.0 0.00 0.25 0.25 99 1011.2
20260503011500 73 180 2.0 2.0 0.00 0.25 0.25 99 1011.4
20260503010957 73 177 0.0 1.0 0.00 0.25 0.25 99 1011.5
20260503010453 73 176 0.0 0.0 0.00 0.25 0.25 99 1011.4
20260503005951 73 179 0.0 0.0 0.00 0.25 0.25 99 1011.6
20260503005448 73 176 0.0 0.0 0.00 0.25 0.25 99 1011.3
20260503004944 73 179 0.0 0.0 0.00 0.25 0.25 99 1011.3
20260503004441 73 174 0.0 1.0 0.00 0.25 0.25 99 1011.1
20260503003939 73 180 0.0 1.0 0.00 0.25 0.25 99 1010.9
20260503003436 73 175 0.0 0.0 0.00 0.25 0.25 99 1010.9
20260503002933 73 176 1.0 1.0 0.05 0.25 0.25 99 1011.0
20260503002430 73 170 1.0 2.0 0.05 0.25 0.25 99 1011.2
20260503001926 73 177 0.0 1.0 0.00 0.24 0.24 99 1011.4
20260503001423 73 166 0.0 0.0 0.07 0.24 0.24 99 1010.8
20260503000921 73 178 0.0 1.0 0.07 0.24 0.24 99 1011.3
20260503000417 73 181 0.0 0.0 0.00 0.23 0.23 99 1011.0
20260502235914 73 199 1.0 2.0 0.00 0.23 0.23 99 1011.0
20260502235411 73 171 0.0 0.0 0.00 0.23 0.23 99 1010.5
20260502234908 73 174 0.0 0.0 0.00 0.23 0.23 99 1010.9
20260502234359 73 183 0.0 1.0 0.00 0.23 0.23 99 1011.0
20260502233856 73 184 0.0 0.0 0.00 0.23 0.23 99 1011.2
20260502233352 73 180 0.0 2.0 0.00 0.23 0.23 99 1011.2
20260502232849 73 177 0.0 0.0 0.00 0.23 0.23 99 1011.0
20260502232345 72 191 1.0 1.0 0.00 0.23 0.23 98 1011.0
20260502231842 72 191 1.0 1.0 0.00 0.23 0.23 98 1011.1
20260502231340 72 191 1.0 1.0 0.00 0.23 0.23 98 1010.9
20260502230838 72 169 0.0 0.0 0.00 0.23 0.23 98 1010.7
20260502230335 72 177 0.0 0.0 0.00 0.23 0.23 98 1010.9
20260502225831 72 190 0.0 0.0 0.00 0.23 0.23 97 1011.0
20260502225328 72 177 0.0 0.0 0.05 0.23 0.23 96 1010.9
20260502224826 72 178 1.0 1.0 0.35 0.23 0.23 95 1010.9
20260502224321 72 195 2.0 3.0 1.25 0.21 0.21 92 1010.9
20260502223819 76 186 1.0 8.0 0.85 0.14 0.14 87 1010.7
20260502223317 83 153 4.0 8.0 0.00 0.00 0.00 76 1010.5
20260502222815 83 182 3.0 7.0 0.00 0.00 0.00 77 1009.7
20260502222312 83 320 4.0 6.0 0.00 0.00 0.00 77 1009.6
20260502221808 83 200 1.0 2.0 0.00 0.00 0.00 77 1009.7
20260502221303 83 192 3.0 4.0 0.00 0.00 0.00 76 1009.5
20260502220801 83 248 4.0 6.0 0.00 0.00 0.00 75 1009.5
20260502220257 83 230 4.0 10.0 0.00 0.00 0.00 75 1009.9
20260502215754 83 273 5.0 9.0 0.00 0.00 0.00 74 1009.7
20260502215251 84 237 9.0 13.0 0.00 0.00 0.00 73 1009.6
20260502214748 84 281 2.0 6.0 0.00 0.00 0.00 71 1009.6
20260502214244 84 295 4.0 6.0 0.00 0.00 0.00 69 1009.4
20260502213742 85 200 4.0 4.0 0.00 0.00 0.00 68 1009.3
20260502213239 85 250 7.0 9.0 0.00 0.00 0.00 67 1009.4
20260502212738 86 235 3.0 7.0 0.00 0.00 0.00 65 1009.3
20260502212236 85 231 5.0 8.0 0.00 0.00 0.00 64 1009.2
20260502211732 85 214 6.0 8.0 0.00 0.00 0.00 64 1009.1
20260502211229 86 259 6.0 8.0 0.00 0.00 0.00 63 1009.3
20260502210726 86 212 4.0 6.0 0.00 0.00 0.00 62 1009.2
20260502210223 87 223 2.0 4.0 0.00 0.00 0.00 62 1009.1
20260502205720 87 235 9.0 10.0 0.00 0.00 0.00 62 1009.0
20260502205216 87 187 3.0 10.0 0.00 0.00 0.00 62 1009.0
20260502204713 87 223 5.0 10.0 0.00 0.00 0.00 60 1009.0
20260502204211 89 247 6.0 7.0 0.00 0.00 0.00 56 1008.6
20260502203708 90 193 6.0 9.0 0.00 0.00 0.00 55 1009.0
20260502203206 90 257 9.0 14.0 0.00 0.00 0.00 55 1009.0
20260502202659 91 242 3.0 10.0 0.00 0.00 0.00 53 1008.8
20260502202158 90 135 4.0 8.0 0.00 0.00 0.00 55 1008.9
20260502201655 90 255 8.0 10.0 0.00 0.00 0.00 53 1008.8
20260502201146 90 187 4.0 9.0 0.00 0.00 0.00 54 1009.1
20260502200642 90 218 7.0 13.0 0.00 0.00 0.00 52 1008.8
20260502200139 91 270 4.0 7.0 0.00 0.00 0.00 55 1008.7
20260502195637 90 191 1.0 2.0 0.00 0.00 0.00 56 1008.8
20260502195133 91 191 2.0 3.0 0.00 0.00 0.00 55 1008.7
20260502194630 92 228 2.0 4.0 0.00 0.00 0.00 55 1008.9
20260502194127 90 203 4.0 6.0 0.00 0.00 0.00 55 1008.8
20260502193623 90 202 4.0 11.0 0.00 0.00 0.00 54 1009.0
20260502193120 91 245 7.0 9.0 0.00 0.00 0.00 54 1009.1
20260502192616 91 215 2.0 6.0 0.00 0.00 0.00 54 1009.2
20260502192114 91 187 7.0 11.0 0.00 0.00 0.00 54 1009.3
20260502191610 91 212 6.0 7.0 0.00 0.00 0.00 54 1009.3
20260502191107 91 256 8.0 11.0 0.00 0.00 0.00 55 1009.4
20260502190605 91 191 4.0 8.0 0.00 0.00 0.00 54 1009.3
20260502185556 91 238 6.0 9.0 0.00 0.00 0.00 53 1009.7
20260502185048 91 241 5.0 8.0 0.00 0.00 0.00 57 1009.7
20260502184544 90 242 6.0 9.0 0.00 0.00 0.00 56 1009.9
20260502184040 91 312 6.0 9.0 0.00 0.00 0.00 57 1009.8
20260502183536 91 233 4.0 8.0 0.00 0.00 0.00 54 1010.1
20260502183032 90 210 2.0 10.0 0.00 0.00 0.00 57 1010.0
20260502182527 91 198 5.0 11.0 0.00 0.00 0.00 55 1010.1
20260502182018 91 236 7.0 11.0 0.00 0.00 0.00 53 1010.0
20260502181516 91 199 4.0 10.0 0.00 0.00 0.00 54 1010.1
20260502181015 91 268 4.0 9.0 0.00 0.00 0.00 57 1010.1
20260502180511 90 233 7.0 11.0 0.00 0.00 0.00 59 1010.0
20260502170429 91 168 5.0 8.0 0.00 0.00 0.00 59 1010.4
20260502163913 90 214 2.0 4.0 0.00 0.00 0.00 60 1010.3
20260502163409 90 264 4.0 8.0 0.00 0.00 0.00 61 1010.3
20260502162907 90 174 6.0 9.0 0.00 0.00 0.00 61 1010.2
20260502162403 89 231 4.0 10.0 0.00 0.00 0.00 62 1010.1
20260502161900 90 174 3.0 4.0 0.00 0.00 0.00 63 1010.4
20260502161356 90 159 4.0 6.0 0.00 0.00 0.00 62 1010.3
20260502160854 89 224 2.0 7.0 0.00 0.00 0.00 64 1010.3
20260502160353 89 215 4.0 6.0 0.00 0.00 0.00 64 1010.1
20260502152328 88 196 2.0 11.0 0.00 0.00 0.00 65 1009.9
20260502151825 88 251 9.0 14.0 0.00 0.00 0.00 67 1010.0
20260502151322 88 166 4.0 8.0 0.00 0.00 0.00 68 1010.0
20260502150820 88 177 3.0 4.0 0.00 0.00 0.00 69 1010.1
20260502150316 87 188 4.0 7.0 0.00 0.00 0.00 69 1010.0
20260502130704 81 170 3.0 4.0 0.00 0.00 0.00 84 1009.8
20260502130202 80 182 1.0 2.0 0.00 0.00 0.00 85 1010.0
20260502123647 78 178 2.0 2.0 0.00 0.00 0.00 90 1009.5
20260502123144 77 185 1.0 1.0 0.00 0.00 0.00 91 1009.4
20260502122641 76 165 0.0 1.0 0.00 0.00 0.00 92 1009.6
20260502122137 76 169 0.0 0.0 0.00 0.00 0.00 93 1009.5
20260502121636 75 178 0.0 1.0 0.00 0.00 0.00 94 1009.3
20260502121133 74 179 0.0 1.0 0.00 0.00 0.00 94 1009.4
20260502120629 74 172 0.0 0.0 0.00 0.00 0.00 94 1009.5
20260502120126 74 168 1.0 1.0 0.00 0.00 0.00 95 1009.6
20260502115624 73 159 0.0 0.0 0.00 0.00 0.00 96 1009.4
20260502115119 73 179 0.0 0.0 0.00 0.00 0.00 97 1009.2
20260502114616 72 163 0.0 0.0 0.00 0.00 0.00 97 1009.4
20260502114113 72 176 0.0 0.0 0.00 0.00 0.00 98 1009.4
20260502113610 71 174 1.0 2.0 0.00 0.00 0.00 99 1009.4
20260502113109 71 166 0.0 1.0 0.00 0.00 0.00 99 1009.2
20260502112606 71 176 0.0 0.0 0.00 0.00 0.00 99 1009.6
20260502112104 71 171 0.0 1.0 0.00 0.00 0.00 99 1009.4
20260502111601 70 163 1.0 1.0 0.00 0.00 0.00 99 1009.3
20260502111058 70 175 0.0 0.0 0.00 0.00 0.00 99 1009.5
20260502110556 69 175 0.0 0.0 0.00 0.00 0.00 99 1009.4
20260502110053 69 175 0.0 0.0 0.00 0.00 0.00 99 1009.3
20260502105550 69 175 0.0 0.0 0.00 0.00 0.00 99 1009.4
20260502105048 69 172 0.0 0.0 0.00 0.00 0.00 99 1009.3
20260502104545 69 172 0.0 0.0 0.00 0.00 0.00 99 1009.2
20260502104042 69 172 0.0 0.0 0.00 0.00 0.00 99 1009.3
20260502103540 68 172 0.0 0.0 0.00 0.00 0.00 99 1009.5
20260502103038 69 172 0.0 0.0 0.00 0.00 0.00 99 1009.4
20260502102534 69 172 0.0 0.0 0.00 0.00 0.00 99 1009.3
20260502102031 69 172 0.0 0.0 0.00 0.00 0.00 99 1009.2
20260502101529 0 0.0 0.0 0.00 0.00 0.00 1009.4
20260502101027 0 0.0 0.0 0.00 0.00 0.00 1009.3
20260502100525 0 0.0 0.0 0.00 0.00 0.00 1009.4
20260502091500 0 0.0 0.0 0.00 0.00 0.00 1009.6
20260502090957 0 0.0 0.0 0.00 0.00 0.00 1009.5
20260502090454 0 0.0 0.0 0.00 0.00 0.00 1009.6
20260502071349 0 0.0 0.0 0.00 0.00 0.00 1009.5
20260502070847 0 0.0 0.0 0.00 0.00 0.00 1009.6
20260502070344 0 0.0 0.0 0.00 0.00 0.00 1009.6
20260502065843 0 0.0 0.0 0.00 0.00 0.00 1009.8
20260502065340 0 0.0 0.0 0.00 0.00 0.00 1009.7
20260502064838 0 0.0 0.0 0.00 0.00 0.00 1009.7
20260502064336 0 0.0 0.0 0.00 0.00 0.00 1009.8
20260502063833 65 171 0.0 0.0 0.00 0.00 0.00 99 1009.6
20260502063331 65 171 0.0 0.0 0.00 0.00 0.00 99 1009.8
20260502062828 65 171 0.0 0.0 0.00 0.00 0.00 99 1009.7
20260502062325 65 171 0.0 0.0 0.00 0.00 0.00 99 1009.8
20260502061824 65 171 0.0 0.0 0.00 0.00 0.00 99 1009.8
20260502061321 65 171 0.0 0.0 0.00 0.00 0.00 99 1009.9
20260502060817 65 171 0.0 0.0 0.00 0.00 0.00 99 1009.9
20260502060312 65 171 0.0 0.0 0.00 0.00 0.00 99 1009.9
20260502055810 65 171 0.0 0.0 0.00 0.00 0.00 99 1010.1
20260502055308 65 171 0.0 0.0 0.00 0.00 0.00 99 1010.0
20260502054807 65 171 0.0 0.0 0.00 0.00 0.00 99 1010.0
20260502054304 65 171 0.0 0.0 0.00 0.00 0.00 99 1010.2
20260502053801 65 170 0.0 0.0 0.00 0.00 0.00 99 1010.2
20260502053258 65 171 0.0 0.0 0.00 0.00 0.00 99 1010.2
20260502052756 65 171 0.0 0.0 0.00 0.00 0.00 99 1010.2
20260502052254 65 171 0.0 0.0 0.00 0.00 0.00 99 1010.3
20260502051752 65 171 0.0 0.0 0.00 0.00 0.00 99 1010.4
20260502051250 65 171 0.0 0.0 0.00 0.00 0.00 99 1010.4
20260502050746 66 171 0.0 0.0 0.00 0.00 0.00 99 1010.6
20260502050242 65 171 0.0 0.0 0.00 0.00 0.00 99 1010.6
20260502045740 65 171 0.0 0.0 0.00 0.00 0.00 98 1010.4
20260502045236 65 171 0.0 0.0 0.00 0.00 0.00 98 1010.7
20260502044733 65 171 0.0 0.0 0.00 0.00 0.00 98 1010.6
20260502044229 65 171 0.0 0.0 0.00 0.00 0.00 98 1010.5
20260502043727 65 171 0.0 0.0 0.00 0.00 0.00 98 1010.6
20260502043225 65 171 0.0 0.0 0.00 0.00 0.00 98 1010.5
20260502042724 65 171 0.0 0.0 0.00 0.00 0.00 97 1010.5
20260502042221 66 171 0.0 0.0 0.00 0.00 0.00 97 1010.4
20260502041719 66 171 0.0 0.0 0.00 0.00 0.00 97 1010.5
20260502041216 66 171 0.0 0.0 0.00 0.00 0.00 97 1010.4
20260502040713 66 171 0.0 0.0 0.00 0.00 0.00 97 1010.5
20260502040210 66 171 0.0 0.0 0.00 0.00 0.00 97 1010.4
20260502035706 66 171 0.0 0.0 0.00 0.00 0.00 96 1010.4
20260502035203 66 171 0.0 0.0 0.00 0.00 0.00 96 1010.2
20260502034700 66 171 0.0 0.0 0.00 0.00 0.00 96 1010.5
20260502034159 67 171 0.0 0.0 0.00 0.00 0.00 95 1010.4
20260502033656 67 171 0.0 0.0 0.00 0.00 0.00 95 1010.4
20260502033154 67 172 0.0 0.0 0.00 0.00 0.00 95 1010.4
20260502032650 67 172 0.0 0.0 0.00 0.00 0.00 95 1010.4
20260502032146 67 172 0.0 0.0 0.00 0.00 0.00 94 1010.5
20260502031644 67 172 0.0 0.0 0.00 0.00 0.00 94 1010.6
20260502031142 67 172 0.0 0.0 0.00 0.00 0.00 94 1010.5
20260502030640 68 172 0.0 0.0 0.00 0.00 0.00 93 1010.5
20260502030138 68 172 0.0 0.0 0.00 0.00 0.00 93 1010.7
20260502025635 68 172 0.0 0.0 0.00 0.00 0.00 93 1010.8